{"data":{"norad_id":62206,"intl_designator":"2024-229Q","name":"STARLINK-32448","alt_names":[],"object_type":"PAYLOAD","status":"ACTIVE","operator":null,"country":"US","launch_date":"2024-12-04","launch_site_code":"AFETR","launch_vehicle":null,"mission":null,"orbit_class":"UNKNOWN","rcs_meters":null,"size_class":null,"mass_kg":null,"dimensions":null,"purposes":["comms"],"wikipedia_slug":null,"has_3d_model":false,"image_url":null,"decayed_at":null,"tle_current":{"epoch":"2026-05-25T04:21:45.190656Z","epoch_age_seconds":69877,"freshness":"FRESH","line1":"1 62206U 24229Q   26145.18177304  .00010918  00000+0  40561-3 0  9991","line2":"2 62206  42.9991 198.4023 0001037 273.9351  86.1382 15.27587498 82262","mean_motion":15.27587498,"eccentricity":0.0001037,"inclination_deg":42.9991,"raan_deg":198.4023,"arg_perigee_deg":273.9351,"mean_anomaly_deg":86.1382,"bstar":0.00040561,"rev_number":8226,"period_min":94.266286015389,"perigee_km":482.31514175217,"apogee_km":483.73814709202,"semimajor_km":6861.1636444221,"source":"CELESTRAK","updated_at":"2026-05-25T13:38:19.608879Z"}}}